When you browse on this site, cookies collect data to enhance your experience and personalize the content and advertising you see.
Visit our Privacy Policy to learn more. By continuing to use the site, you agree to this use of cookies and data.
  • In Latvia
  • List of Countries
  • For 7 days
  • Water Temperature
  • Satellite Maps
  • Weather Map
  • Weather Widgets
  • user-avatar
    Login

    Hourly Weather Bengazi

    Today, 19 March, Tuesday

    Time Temperature Precipitation Wind Pressure Humidity
    00:00 +19°C° 0 mm 1 mps 762 mmHg 49%
    01:00 +19°C° 0 mm 1 mps 762 mmHg 48%
    02:00 +19°C° 0 mm 1 mps 762 mmHg 47%
    03:00 +19°C° 0 mm 1 mps 762 mmHg 46%
    04:00 +19°C° 0 mm 1 mps 761 mmHg 45%
    05:00 +18°C° 0 mm 2 mps 761 mmHg 44%
    06:00 +18°C° 0 mm 2 mps 761 mmHg 43%
    07:00 +19°C° 0 mm 3 mps 761 mmHg 42%
    08:00 +20°C° 0 mm 3 mps 761 mmHg 38%
    09:00 +22°C° 0 mm 3 mps 761 mmHg 34%
    10:00 +24°C° 0 mm 3 mps 761 mmHg 30%
    11:00 +25°C° 0 mm 3 mps 761 mmHg 29%
    12:00 +26°C° 0 mm 3 mps 761 mmHg 27%
    13:00 +26°C° 0 mm 3 mps 761 mmHg 26%
    14:00 +26°C° 0 mm 3 mps 760 mmHg 27%
    15:00 +26°C° 0 mm 2 mps 760 mmHg 29%
    16:00 +25°C° 0 mm 2 mps 760 mmHg 30%
    17:00 +24°C° 0 mm 3 mps 760 mmHg 34%
    18:00 +22°C° 0 mm 4 mps 760 mmHg 39%
    19:00 +22°C° 0 mm 5 mps 761 mmHg 43%
    20:00 +22°C° 0 mm 6 mps 761 mmHg 41%
    21:00 +22°C° 0 mm 6 mps 761 mmHg 39%
    22:00 +22°C° 0 mm 6 mps 761 mmHg 37%
    23:00 +21°C° 0 mm 6 mps 761 mmHg 37%

    Tomorrow, 20 March, Wednesday

    Time Temperature Precipitation Wind Pressure Humidity
    00:00 +21°C° 0 mm 5 mps 760 mmHg 36%
    01:00 +21°C° 0 mm 5 mps 760 mmHg 36%
    02:00 +20°C° 0 mm 6 mps 760 mmHg 39%
    03:00 +20°C° 0 mm 6 mps 760 mmHg 41%
    04:00 +18°C° 0 mm 7 mps 759 mmHg 44%
    05:00 +20°C° 0 mm 7 mps 760 mmHg 43%
    06:00 +20°C° 0 mm 8 mps 760 mmHg 42%
    07:00 +20°C° 0 mm 8 mps 760 mmHg 41%
    08:00 +22°C° 0 mm 8 mps 760 mmHg 36%
    09:00 +23°C° 0 mm 8 mps 760 mmHg 31%
    10:00 +26°C° 0 mm 8 mps 760 mmHg 26%
    11:00 +27°C° 0 mm 8 mps 759 mmHg 25%
    12:00 +27°C° 0 mm 8 mps 759 mmHg 23%
    13:00 +28°C° 0 mm 8 mps 759 mmHg 22%
    14:00 +28°C° 0 mm 8 mps 758 mmHg 22%
    15:00 +29°C° 0 mm 7 mps 758 mmHg 21%
    16:00 +29°C° 0 mm 7 mps 757 mmHg 20%
    17:00 +28°C° 0 mm 7 mps 757 mmHg 23%
    18:00 +27°C° 0 mm 7 mps 757 mmHg 25%
    19:00 +24°C° 0 mm 7 mps 758 mmHg 27%
    20:00 +24°C° 0 mm 8 mps 758 mmHg 30%
    21:00 +23°C° 0 mm 9 mps 758 mmHg 34%
    22:00 +22°C° 0 mm 11 mps 759 mmHg 37%
    23:00 +22°C° 0 mm 11 mps 759 mmHg 38%

    Day after tomorrow, 21 March, Thursday

    Time Temperature Precipitation Wind Pressure Humidity
    00:00 +21°C° 0 mm 11 mps 759 mmHg 39%
    01:00 +21°C° 0 mm 11 mps 759 mmHg 40%
    02:00 +19°C° 0 mm 11 mps 759 mmHg 42%
    03:00 +19°C° 0 mm 10 mps 759 mmHg 44%
    04:00 +19°C° 0 mm 10 mps 759 mmHg 45%
    05:00 +19°C° 0 mm 9 mps 759 mmHg 47%
    06:00 +18°C° 0 mm 8 mps 760 mmHg 48%
    07:00 +18°C° 0 mm 8 mps 760 mmHg 50%
    08:00 +21°C° 0 mm 7 mps 761 mmHg 45%
    09:00 +22°C° 0 mm 7 mps 761 mmHg 40%
    10:00 +23°C° 0 mm 7 mps 761 mmHg 36%
    11:00 +24°C° 0 mm 6 mps 761 mmHg 35%
    12:00 +25°C° 0 mm 5 mps 761 mmHg 35%
    13:00 +26°C° 0 mm 5 mps 761 mmHg 35%
    14:00 +25°C° 0 mm 5 mps 761 mmHg 45%
    15:00 +22°C° 0 mm 6 mps 760 mmHg 54%
    16:00 +21°C° 0 mm 6 mps 760 mmHg 64%
    17:00 +20°C° 0 mm 5 mps 761 mmHg 68%
    18:00 +20°C° 0 mm 4 mps 761 mmHg 72%
    19:00 +19°C° 0 mm 3 mps 762 mmHg 76%
    20:00 +19°C° 0 mm 3 mps 762 mmHg 71%
    21:00 +19°C° 0 mm 2 mps 762 mmHg 67%
    22:00 +20°C° 0 mm 2 mps 763 mmHg 62%
    23:00 +19°C° 0 mm 3 mps 763 mmHg 59%

    22 March, Friday

    Time Temperature Precipitation Wind Pressure Humidity
    00:00 +19°C° 0 mm 4 mps 763 mmHg 56%
    01:00 +19°C° 0 mm 5 mps 763 mmHg 52%
    02:00 +19°C° 0 mm 5 mps 762 mmHg 52%
    03:00 +17°C° 0 mm 5 mps 762 mmHg 52%
    04:00 +17°C° 0 mm 6 mps 762 mmHg 52%
    05:00 +17°C° 0 mm 6 mps 762 mmHg 51%
    06:00 +18°C° 0 mm 7 mps 763 mmHg 51%
    07:00 +18°C° 0 mm 8 mps 763 mmHg 51%
    08:00 +20°C° 0 mm 8 mps 763 mmHg 47%
    09:00 +22°C° 0 mm 8 mps 763 mmHg 43%
    10:00 +24°C° 0 mm 9 mps 763 mmHg 38%
    11:00 +24°C° 0 mm 7 mps 763 mmHg 38%
    12:00 +26°C° 0 mm 5 mps 763 mmHg 38%
    13:00 +26°C° 0 mm 3 mps 762 mmHg 38%
    14:00 +27°C° 0 mm 4 mps 762 mmHg 37%
    15:00 +27°C° 0 mm 6 mps 762 mmHg 36%
    16:00 +27°C° 0 mm 7 mps 762 mmHg 36%
    17:00 +26°C° 0 mm 7 mps 762 mmHg 40%
    18:00 +23°C° 0 mm 8 mps 763 mmHg 44%
    19:00 +22°C° 0 mm 8 mps 763 mmHg 48%
    20:00 +22°C° 0 mm 8 mps 763 mmHg 50%
    21:00 +21°C° 0 mm 7 mps 763 mmHg 52%
    22:00 +21°C° 0 mm 7 mps 764 mmHg 54%
    23:00 +20°C° 0 mm 7 mps 763 mmHg 52%

    23 March, Saturday

    Time Temperature Precipitation Wind Pressure Humidity
    00:00 +20°C° 0 mm 7 mps 763 mmHg 50%
    01:00 +20°C° 0 mm 8 mps 763 mmHg 49%
    02:00 +18°C° 0 mm 7 mps 763 mmHg 49%
    03:00 +19°C° 0 mm 5 mps 763 mmHg 50%
    04:00 +19°C° 0 mm 4 mps 764 mmHg 51%
    05:00 +19°C° 0 mm 5 mps 764 mmHg 53%
    06:00 +19°C° 0 mm 5 mps 765 mmHg 55%
    07:00 +19°C° 0 mm 6 mps 765 mmHg 57%
    08:00 +20°C° 0 mm 5 mps 765 mmHg 53%
    09:00 +21°C° 0 mm 4 mps 765 mmHg 49%
    10:00 +22°C° 0 mm 3 mps 766 mmHg 44%
    11:00 +22°C° 0 mm 4 mps 765 mmHg 45%
    12:00 +23°C° 0 mm 6 mps 765 mmHg 46%
    13:00 +23°C° 0 mm 7 mps 765 mmHg 46%
    14:00 +23°C° 0 mm 7 mps 764 mmHg 49%
    15:00 +22°C° 0 mm 8 mps 764 mmHg 52%
    16:00 +22°C° 0 mm 8 mps 764 mmHg 55%
    17:00 +21°C° 0 mm 8 mps 764 mmHg 58%
    18:00 +20°C° 0 mm 8 mps 765 mmHg 61%
    19:00 +18°C° 0 mm 7 mps 765 mmHg 63%
    20:00 +18°C° 0 mm 7 mps 765 mmHg 64%
    21:00 +18°C° 0 mm 7 mps 766 mmHg 64%
    22:00 +17°C° 0 mm 6 mps 766 mmHg 64%
    23:00 +17°C° 0 mm 6 mps 766 mmHg 65%

    24 March, Sunday

    Time Temperature Precipitation Wind Pressure Humidity
    00:00 +17°C° 0 mm 6 mps 766 mmHg 66%
    01:00 +16°C° 0 mm 7 mps 766 mmHg 67%
    02:00 +16°C° 0 mm 6 mps 766 mmHg 68%
    03:00 +16°C° 0 mm 6 mps 766 mmHg 68%
    04:00 +15°C° 0 mm 6 mps 766 mmHg 69%
    05:00 +15°C° 0 mm 6 mps 766 mmHg 68%
    06:00 +15°C° 0 mm 6 mps 766 mmHg 67%
    07:00 +16°C° 0 mm 6 mps 766 mmHg 66%
    08:00 +17°C° 0 mm 6 mps 767 mmHg 60%
    09:00 +19°C° 0 mm 6 mps 767 mmHg 55%
    10:00 +20°C° 0 mm 5 mps 767 mmHg 50%
    11:00 +21°C° 0 mm 6 mps 766 mmHg 49%
    12:00 +21°C° 0 mm 6 mps 766 mmHg 48%
    13:00 +22°C° 0 mm 7 mps 766 mmHg 47%
    14:00 +21°C° 0 mm 7 mps 765 mmHg 50%
    15:00 +21°C° 0 mm 8 mps 765 mmHg 53%
    16:00 +20°C° 0 mm 8 mps 765 mmHg 56%
    17:00 +18°C° 0 mm 8 mps 765 mmHg 58%
    18:00 +18°C° 0 mm 8 mps 765 mmHg 61%
    19:00 +17°C° 0 mm 7 mps 765 mmHg 64%
    20:00 +17°C° 0 mm 7 mps 765 mmHg 64%
    21:00 +16°C° 0 mm 7 mps 765 mmHg 64%
    22:00 +16°C° 0 mm 6 mps 765 mmHg 65%
    23:00 +16°C° 0 mm 6 mps 765 mmHg 65%
    Show more